Location: Hauppauge
(40.8260°N, 73.2030°W)
Time: 06:15:43
(UTC-04:00)

Daily predictions for brighter satellites

Satellite Brightness Start Highest point End
(mag) Time Altitude Azimuth Time Altitude Azimuth Time Altitude Azimuth
SL-19 R/B 4.4 18:56:12 10° SSE 19:01:45 65° ENE 19:07:39 10° N
Cosmos 1371 Rocket 4.5 18:59:24 10° NNW 19:04:41 70° WSW 19:09:59 10° S
Cosmos 2297 3.7 18:59:03 10° NNW 19:04:46 81° ENE 19:10:24 10° SSE
Cosmos 2233 Rocket 4.3 18:59:46 10° SSW 19:06:03 76° W 19:12:25 10° N
Cosmos 1805 4.4 19:03:07 10° SE 19:06:16 23° E 19:09:26 10° NE
Cosmos 1953 3.3 19:03:57 10° SE 19:07:13 25° E 19:10:29 10° NE
ALOS 3.8 19:05:49 10° ESE 19:08:53 18° ENE 19:11:57 10° NNE
ISS -1.3 19:07:51 10° SSE 19:09:29 13° SE 19:11:07 10° E
Meteor 1-22 Rocket 4.0 19:05:18 10° S 19:10:38 76° E 19:15:56 10° NNE
MSX 4.3 19:07:00 10° S 19:12:42 69° WSW 19:18:28 10° NNW
USA 215 3.7 19:06:42 10° ENE 19:12:49 41° SE 19:18:54 10° SSW
SKYMED 2 3.9 19:09:53 10° N 19:14:13 74° WNW 19:18:32 10° SSW
Cosmos 2369 Rocket 3.8 19:10:47 10° N 19:14:20 17° NE 19:17:52 10° E
HJ-1C 4.4 19:12:48 10° SE 19:15:41 27° ENE 19:18:34 10° NNE
Cosmos 1707 4.1 19:12:49 10° NNW 19:16:31 45° W 19:20:11 10° SSW
Cosmos 1408 Rocket 3.8 19:12:52 10° N 19:17:02 44° ENE 19:21:09 10° SSE
Meteor 1-24 Rocket 3.8 19:12:18 10° N 19:17:57 86° W 19:23:23 10° S
IDEFIX/ARIANE 42P 4.3 19:13:36 10° SSW 19:18:27 38° W 19:23:20 10° NNW
Cosmos 1603 4.2 19:15:29 10° S 19:20:43 38° ESE 19:25:59 10° NE
GPS 2-04 Rocket1 4.2 19:19:00 10° SSW 19:21:24 18° SSE 19:23:38 11° ESE
NOAA 12 4.1 19:20:58 10° SSE 19:26:11 73° ENE 19:31:28 10° N
Aureole 2 Rocket 3.8 19:25:20 10° SSW 19:29:37 54° WNW 19:33:50 10° N
Cosmos 1470 4.2 19:27:12 10° SE 19:29:46 17° E 19:32:20 10° NE
SL-8 R/B 4.2 19:25:58 10° SSW 19:30:26 41° SE 19:34:16 14° ENE
ATLAS CENTAUR R/B 3.6 19:27:48 10° SW 19:32:36 85° SE 19:48:12 10° NE
Cosmos 724 4.4 19:28:52 10° SSW 19:34:39 61° ESE 19:40:38 10° NE
SeaSat 1 4.0 19:35:14 15° ESE 19:35:14 15° ESE 19:37:24 10° SE
SAR-Lupe-1 4.4 19:32:16 10° S 19:35:47 70° WSW 19:39:22 10° NNW
SJ-6B 3.1 19:33:19 10° S 19:37:17 76° WSW 19:41:22 10° NNW
In-Cosmos 22 4.2 19:33:14 10° N 19:39:02 74° E 19:44:46 10° SSE
Resurs 1-3 3.9 19:34:56 10° SE 19:39:06 45° ENE 19:43:19 10° N
Meteor 1-29 3.4 19:37:09 10° NNE 19:40:30 40° E 19:43:47 10° S
Helios 1A 3.1 19:36:25 10° SSE 19:40:30 53° ENE 19:44:38 10° N
FREGAT/IRIS 2.7 19:37:41 10° S 19:40:46 81° WSW 19:43:53 10° NNW
TELKOM 3 4.5 19:39:14 10° NW 19:41:41 26° NNE 19:42:25 22° NE
Resurs 01 Rocket 1.6 19:37:52 10° SSE 19:42:15 65° ENE 19:46:41 10° N
CZ-4B DEB 3.9 19:41:22 22° E 19:42:20 26° ENE 19:45:06 10° NNE
Cosmos 1674 3.6 19:41:40 10° NNE 19:45:02 28° ENE 19:46:25 22° ESE
Cosmos 1743 Rocket 3.9 19:41:57 10° N 19:46:13 43° ENE 19:50:24 10° SSE
NOSS 3-2 (A) 4.1 19:40:40 10° SW 19:46:39 60° NW 19:53:15 10° NNE
FengYun 1-2 T 4.2 19:42:36 10° SSE 19:48:00 60° ENE 19:53:24 10° N
Cosmos 1758 3.3 19:46:03 10° S 19:50:08 85° E 19:54:16 10° N
Cosmos 1452 Rocket 3.5 19:46:03 10° NNW 19:51:19 85° WSW 19:56:34 10° SSE
ATLAS 5 CENTAUR R/B 2.3 19:51:33 10° SW 19:56:17 63° NW 20:01:27 10° NNE
Abrixas 2.4 19:54:04 10° SW 19:57:01 60° SSE 19:57:41 45° E
Nadezhda 4 Rocket 3.9 19:53:59 10° N 20:00:15 67° E 20:06:25 10° SSE
Cosmos 1346 2.8 19:58:30 10° N 20:01:30 75° E 20:02:39 33° SSE
Meteor 2-12 Rocket 4.4 19:58:04 10° S 20:04:14 90° E 20:10:25 10° N
Meteor 1-21 Rocket 4.2 20:02:20 10° N 20:07:55 85° W 20:13:27 10° S
Cosmos 1092 Rocket 4.0 20:02:05 10° N 20:08:12 56° E 20:13:46 12° SSE
GP-B 3.7 20:04:28 10° NNE 20:08:19 33° E 20:08:19 33° E
ASTEX 1 3.3 20:06:50 10° NNE 20:11:43 62° E 20:16:32 10° S
Cosmos 1420 Rocket 3.9 20:07:09 10° NNW 20:12:29 83° ENE 20:16:34 17° SSE
SL-16 R/B 4.2 20:12:29 10° WSW 20:17:25 30° NW 20:22:23 10° N
Helios 1B rocket 3.2 20:13:43 10° N 20:17:45 54° WNW 20:21:45 10° SSW
CENTAUR R/B 2.5 20:12:14 10° SSW 20:18:01 53° ESE 20:24:30 10° NE
Cosmos 1544 3.6 20:15:43 10° SSW 20:19:24 60° W 20:23:07 10° N
Cosmos 2026 Rocket 4.4 20:15:47 10° N 20:21:29 39° ENE 20:22:36 36° E
Cosmos 1634 Rocket 4.0 20:17:12 10° SSE 20:23:16 56° E 20:29:20 10° NNE
CZ-2D R/B 3.1 20:24:44 52° SSE 20:25:39 84° ENE 20:29:33 10° N
OAO 3 Rocket 3.9 20:24:57 10° WSW 20:29:21 38° S 20:30:04 36° SSE
Cosmos 1048 Rocket 4.1 20:25:55 10° SSW 20:31:13 78° WNW 20:36:30 10° NNE
Cosmos 1269 Rocket 4.4 20:26:32 10° SSW 20:31:47 66° WNW 20:37:03 10° NNE
FENGYUN 3A 3.8 20:28:51 12° S 20:33:54 74° WSW 20:39:19 10° NNW
Envisat 4.0 20:39:20 31° NE 20:39:20 31° NE 20:42:47 10° N
H-2A R/B 3.0 20:39:09 54° SSW 20:39:49 65° WSW 20:43:41 10° NNW
Gbstr 26 Del rocket 3.2 20:38:18 10° SW 20:42:48 73° SE 20:42:57 72° ESE
Cosmos 2195 Rocket 4.4 20:37:12 10° N 20:43:31 69° E 20:45:27 46° SSE
Cosmos 2151 3.6 20:39:36 10° N 20:42:41 46° NNE 20:42:41 46° NNE
Cosmos 1174 4.3 20:40:20 10° SSW 20:44:15 55° SSW 20:44:15 55° SSW
ISS -1.5 20:42:21 10° WSW 20:44:06 29° WSW 20:44:06 29° WSW
ALOS 3.1 20:42:17 15° S 20:45:55 49° W 20:50:28 10° NNW
BREEZE-M DEB (TANK) 3.4 20:40:27 10° WNW 20:51:16 60° N 20:52:03 52° NE
USA 215 3.7 20:49:37 10° NE 20:55:56 59° NW 21:02:19 10° WSW
Cosmos 158 Rocket 3.9 20:51:30 10° SSW 20:56:21 76° WNW 21:01:16 10° NNE
Cosmos 2369 Rocket 2.1 20:53:23 10° NNW 20:59:03 82° WSW 20:59:46 69° S
Cosmos 1943 Rocket 2.9 20:53:46 10° NNW 20:58:07 40° NNE 20:58:07 40° NNE
Cosmos 1943 3.2 20:53:44 10° SSW 20:59:22 76° WNW 21:05:01 10° NNE
Cosmos 2263 4.1 21:00:23 10° NNW 21:05:59 81° NNE 21:05:59 81° NNE
SeaSat 1 3.9 21:07:40 10° NNE 21:15:13 28° SW 21:17:31 10° SW
SL-8 R/B 4.5 21:08:14 10° W 21:12:17 50° NW 21:12:17 50° NW
ERS-1 Rocket 3.7 21:15:22 48° N 21:15:22 48° N 21:18:57 10° NNW
CENTAUR R/B 4.0 22:03:24 10° WSW 22:08:59 33° NW 22:15:13 10° NNE
